Location: Grasslands National Park East Block
(49.0708°N, 106.5295°W)
Time: 01:31:02
(UTC-06:00)

A-11 Canister half - Visible Passes

Search period start: 20 September 2019 00:00
Search period end: 30 September 2019 00:00
Orbit: 1527 x 1682 km, 47.3° (Epoch: 19 September)

Date Brightness Start Highest point End Pass type
(mag) Time Alt. Az. Time Alt. Az. Time Alt. Az.
20 Sep 10.0 04:16:44 20° S 04:21:58 34° SE 04:30:13 10° ENE visible
20 Sep 9.3 06:16:33 10° WSW 06:25:54 69° SSE 06:35:35 10° E visible
21 Sep 10.0 03:56:31 24° S 04:00:25 32° SE 04:08:31 10° E visible
21 Sep 9.3 05:54:59 10° WSW 06:04:17 68° SSE 06:13:55 10° E visible
22 Sep 9.9 03:36:15 27° SSE 03:38:52 31° SE 03:46:49 10° E visible
22 Sep 9.2 05:34:33 15° SW 05:42:40 66° SSE 05:52:16 10° E visible
23 Sep 9.9 03:15:56 28° SSE 03:17:20 29° SE 03:25:06 10° E visible
23 Sep 9.2 05:14:15 20° SW 05:21:05 65° SSE 05:30:36 10° E visible
24 Sep 10.0 02:55:36 28° SE 02:55:47 28° SE 03:03:23 10° E visible
24 Sep 9.2 04:53:54 27° SW 04:59:28 63° SSE 05:08:56 10° E visible
25 Sep 10.1 02:35:14 26° SE 02:35:14 26° SE 02:41:40 10° E visible
25 Sep 9.2 04:33:32 34° SW 04:37:53 61° SSE 04:47:18 10° ENE visible
26 Sep 10.3 02:14:50 23° ESE 02:14:50 23° ESE 02:19:56 10° E visible
26 Sep 9.1 04:13:08 42° SSW 04:16:17 60° SSE 04:25:38 10° ENE visible
26 Sep 9.1 06:11:31 10° W 06:20:59 82° S 06:30:45 10° E visible
27 Sep 10.5 01:54:25 20° ESE 01:54:25 20° ESE 01:58:12 10° E visible
27 Sep 9.1 03:52:43 50° SSW 03:54:41 58° SSE 04:03:59 10° ENE visible
27 Sep 9.1 05:51:01 15° W 05:59:20 81° S 06:09:05 10° E visible
28 Sep 10.7 01:33:59 16° E 01:33:59 16° E 01:36:26 10° E visible
28 Sep 9.0 03:32:17 55° S 03:33:06 57° SSE 03:42:20 10° ENE visible
28 Sep 9.0 05:30:35 20° W 05:37:43 81° S 05:47:26 10° E visible
29 Sep 10.9 01:13:32 13° E 01:13:32 13° E 01:14:41 10° E visible
29 Sep 9.1 03:11:50 55° SE 03:11:50 55° SE 03:20:41 10° ENE visible
29 Sep 9.0 05:10:08 26° WSW 05:16:05 81° S 05:25:47 10° E visible
